Flag for U.S.A. Weather past 2 weeks in Butte, Montana, U.S.A.

Now
75 °F

Sunny.


Feels Like: 77 °F
Forecast: 51 / 80 °F
Wind: 5 mph from North

Location: Mooney Airport

Current Time: Jun 30, 2015 at 10:56:40 PM

Latest Report: Jun 30, 2015 at 9:53 PM


Visibility: 10 mi

Pressure: 29.95 "Hg

Humidity: 32%

Dew point: 43 °F

Location of ButteLocation

Historic Weather in Butte — Graph

°F

Butte temperature yesterday

Maximum temperature yesterday: 91 °F (at 1:53 PM)
Minimum temperature yesterday: 62 °F (at 11:53 PM)
Average temperature yesterday: 76 °F

Past Weeks' High & Low Weather Summary

 TemperatureHumidityPressure
High93 °F (Jun 28, 3:53 PM)93% (Jun 16, 2:53 AM)30.23 "Hg (Jun 16, 2:53 AM)
Low41 °F (Jun 20, 5:53 AM)13% (Jun 26, 6:53 PM)29.75 "Hg (Jun 21, 2:53 PM)
Average66 °F43%29.98 "Hg
* Reported Jun 15 9:53 PM — Jun 30 9:53 PM, Butte, Weather by CustomWeather, © 2015

Note: Actual official high and low records may vary slightly from our data, if they occured in-between our weather recording intervals... More about our weather records

Advertising

Butte weather history for previous 24 hours

 ConditionsComfort  
Time TempWeatherWind HumidityBarometerVisibility
9:53 PM
Tue, Jun 30
75 °FSunny.5 mph32%29.95 "Hg10 mi
8:53 PM79 °FSunny.9 mph30%29.93 "Hg10 mi
7:53 PM83 °FSunny.10 mph26%29.92 "Hg10 mi
6:53 PM85 °FSunny.17 mph23%29.93 "Hg10 mi
5:53 PM85 °FSunny.16 mph21%29.93 "Hg10 mi
4:53 PM86 °FSunny.17 mph20%29.92 "Hg10 mi
3:53 PM86 °FPassing clouds.13 mph20%29.93 "Hg10 mi
2:53 PM84 °FSunny.8 mph24%29.95 "Hg10 mi
1:53 PM83 °FPassing clouds.7 mph26%29.97 "Hg10 mi
12:53 PM81 °FPassing clouds.6 mph26%29.99 "Hg10 mi
11:53 AM79 °FSunny.5 mph28%30.01 "Hg10 mi
10:53 AM76 °FSunny.5 mph43%30.02 "Hg10 mi
9:53 AM72 °FSunny.5 mph57%30.04 "Hg10 mi
8:53 AM66 °FSunny.No wind70%30.06 "Hg10 mi
7:53 AM61 °FSunny.No wind83%30.06 "Hg10 mi
6:53 AM57 °FSunny.3 mph93%30.06 "Hg9 mi
5:53 AM57 °FClear.5 mph93%30.03 "Hg10 mi
4:53 AM58 °FPassing clouds.5 mph90%30.02 "Hg10 mi
3:53 AM59 °FLight rain. Mostly cloudy.6 mph90%30.05 "Hg7 mi
3:01 AM61 °FLight rain. Overcast.12 mph81%30.23 "Hg10 mi
1:53 AM58 °FClear.6 mph87%30.00 "Hg10 mi
12:53 AM60 °FPassing clouds.5 mph83%29.99 "Hg10 mi
11:53 PM
Mon, Jun 29
62 °FClear.No wind80%29.98 "Hg10 mi
10:53 PM65 °FClear.3 mph73%29.99 "Hg10 mi
Weather by CustomWeather, © 2015

See weather overviewHow to use our weather pages